Location: Alpha Ridge Park
(39.3209°N, 76.9128°W)
Time: 04:39:27
(UTC-04:00)

Vanguard 2 Rocket - Pass Details

Date: 23 May 2019
Orbit: 555 x 3326 km, 32.9° (Epoch: 25 June)

Event Time Altitude Azimuth Distance (km) Brightness Sun altitude
Rises 12:10:00 0° 276° (W) 5,389 10.7 68.0°
Reaches altitude 10° 12:14:41 10° 268° (W) 3,879 10.1 68.5°
Maximum altitude 12:22:25 30° 212° (SSW) 1,891 9.2 69.2°
Drops below altitude 10° 12:27:25 10° 152° (SSE) 2,447 9.6 69.7°
Sets 12:29:43 0° 140° (SE) 3,155 10.0 69.9°
